Paynesville, MN

8:50 AM CDT on October 19, 2017 (GMT -0500)
Paynesville

Weather History for KPEX - June, 2013

Change the Weather History Date:

Sunday, June 30, 2013

  Actual Average (KLJF) Record (KLJF)
Temperature  
Mean Temperature 66 °F -  
Max Temperature 79 °F 81 °F 97 °F (1963)
Min Temperature 52 °F 58 °F 47 °F (1959)
Growing Degree Days 16 (Base 50)    
Moisture  
Dew Point 51 °F    
Average Humidity 63    
Maximum Humidity 96    
Minimum Humidity 31    
Precipitation  
Precipitation 0.00 in - - ()
Sea Level Pressure  
Sea Level Pressure 30.12 in    
Wind  
Wind Speed 2 mph (NNE)    
Max Wind Speed 10 mph    
Max Gust Speed 16 mph    
Visibility 8 miles    
Events      
Averages and records for this station are not official NWS values.
T = Trace of Precipitation, MM = Missing Value Source: NWS Daily Summary

Daily Weather History Graph

Daily Weather History Graph

Search for Another Location

Airport or City:

Trip Planner

Search our weather history database for the weather conditions in past years. The results will help you decide how hot, cold, wet, or windy it might be!

Date:

Astronomy

Jun. 30, 2013 Rise Set
Actual Time 5:34 AM CDT 9:10 PM CDT
Civil Twilight 4:56 AM CDT 9:48 PM CDT
Nautical Twilight 4:06 AM CDT 10:38 PM CDT
Astronomical Twilight 2:59 AM CDT 11:44 PM CDT
Moon 12:48 AM CDT (6/30) 2:13 PM CDT (6/30)
Length of Visible Light 16h 51m
Length of Day
15h 36m
Last Quarter, 45% of the Moon is Illuminated
Jun 30
Last Quarter
Jul 8
New
Jul 15
First Quarter
Jul 22
Full
Jul 29
Last Quarter

Hourly Weather History & Observations

Time (CDT) Temp. Dew Point Humidity Pressure Visibility Wind Dir Wind Speed Gust Speed Precip Events Conditions
12:13 AM 57.2 °F 54.3 °F 90% 30.04 in 10.0 mi Calm Calm - N/A   Clear
12:33 AM 56.3 °F 53.1 °F 89% 30.04 in 10.0 mi Calm Calm - N/A   Scattered Clouds
12:53 AM 55.8 °F 52.9 °F 90% 30.05 in 10.0 mi Calm Calm - N/A   Scattered Clouds
1:13 AM 55.6 °F 52.9 °F 91% 30.05 in 10.0 mi Calm Calm - N/A   Scattered Clouds
1:33 AM 54.7 °F 52.2 °F 91% 30.06 in 10.0 mi Calm Calm - N/A   Clear
1:52 AM 55.2 °F 52.5 °F 91% 30.06 in 10.0 mi Calm Calm - N/A   Clear
2:13 AM 55.8 °F 52.9 °F 90% 30.06 in 10.0 mi Calm Calm - N/A   Scattered Clouds
2:33 AM 54.5 °F 52.7 °F 94% 30.07 in 10.0 mi Calm Calm - N/A   Clear
2:52 AM 54.1 °F 52.2 °F 93% 30.08 in 10.0 mi Calm Calm - N/A   Scattered Clouds
3:13 AM 53.6 °F 51.8 °F 94% 30.08 in 10.0 mi Calm Calm - N/A   Scattered Clouds
3:33 AM 53.6 °F 51.8 °F 94% 30.09 in 7.0 mi Calm Calm - N/A   Scattered Clouds
3:52 AM 53.6 °F 51.8 °F 94% 30.09 in 10.0 mi Calm Calm - N/A   Clear
4:13 AM 53.6 °F 52.0 °F 94% 30.09 in 10.0 mi Calm Calm - N/A   Clear
4:33 AM 54.5 °F 52.7 °F 94% 30.08 in 10.0 mi Calm Calm - N/A   Clear
4:53 AM 54.5 °F 52.5 °F 93% 30.08 in 10.0 mi Calm Calm - N/A   Clear
5:12 AM 54.1 °F 52.3 °F 94% 30.09 in 10.0 mi Calm Calm - N/A   Clear
5:33 AM 54.1 °F 52.3 °F 94% 30.09 in 10.0 mi Calm Calm - N/A   Clear
5:53 AM 53.6 °F 51.8 °F 94% 30.10 in 7.0 mi Calm Calm - N/A   Clear
6:13 AM 52.9 °F 51.4 °F 95% 30.11 in 7.0 mi Calm Calm - N/A   Clear
6:33 AM 53.8 °F 52.7 °F 96% 30.11 in 7.0 mi Calm Calm - N/A   Clear
6:52 AM 54.5 °F 52.7 °F 94% 30.11 in 7.0 mi Calm Calm - N/A   Scattered Clouds
7:13 AM 55.2 °F 53.2 °F 93% 30.13 in 7.0 mi Calm Calm - N/A   Mostly Cloudy
7:33 AM 56.1 °F 54.0 °F 92% 30.13 in 7.0 mi Calm Calm - N/A   Mostly Cloudy
7:53 AM 58.8 °F 54.9 °F 87% 30.13 in 7.0 mi Calm Calm - N/A   Scattered Clouds
8:13 AM 61.5 °F 54.7 °F 78% 30.14 in 7.0 mi Calm Calm - N/A   Scattered Clouds
8:33 AM 63.7 °F 55.0 °F 73% 30.14 in 10.0 mi Calm Calm - N/A   Clear
8:52 AM 65.3 °F 54.0 °F 67% 30.14 in 7.0 mi Calm Calm - N/A   Clear
9:13 AM 66.7 °F 53.4 °F 62% 30.14 in 10.0 mi NNW 5.8 mph - N/A   Clear
9:33 AM 68.2 °F 53.8 °F 60% 30.14 in 10.0 mi NNW 4.6 mph - N/A   Clear
9:53 AM 70.0 °F 51.8 °F 52% 30.14 in 10.0 mi North 6.9 mph - N/A   Clear
10:13 AM 70.9 °F 52.0 °F 51% 30.14 in 10.0 mi North 6.9 mph - N/A   Clear
10:33 AM 70.7 °F 51.1 °F 50% 30.14 in 10.0 mi North 6.9 mph - N/A   Clear
10:53 AM 71.1 °F 51.8 °F 50% 30.14 in 10.0 mi North 6.9 mph - N/A   Clear
11:13 AM 72.7 °F 50.9 °F 46% 30.14 in 5.0 mi North 6.9 mph - N/A   Haze
11:33 AM 73.9 °F 49.6 °F 42% 30.14 in 10.0 mi NNE 6.9 mph - N/A   Clear
11:53 AM 74.7 °F 49.8 °F 42% 30.14 in 10.0 mi NNE 6.9 mph - N/A   Clear
12:12 PM 75.2 °F 48.9 °F 39% 30.14 in 5.0 mi NNW 5.8 mph - N/A   Haze
12:33 PM 76.1 °F 46.8 °F 35% 30.14 in 7.0 mi NNE 6.9 mph - N/A   Clear
12:53 PM 76.3 °F 46.4 °F 35% 30.14 in 4.0 mi NE 5.8 mph - N/A   Haze
1:13 PM 76.8 °F 46.4 °F 34% 30.14 in 5.0 mi NNE 9.2 mph - N/A   Haze
1:33 PM 77.0 °F 46.9 °F 34% 30.14 in 5.0 mi NE 9.2 mph - N/A   Haze
1:53 PM 77.7 °F 45.5 °F 32% 30.13 in 7.0 mi NNW 3.5 mph - N/A   Clear
2:12 PM 77.9 °F 47.3 °F 34% 30.14 in 10.0 mi North 10.4 mph 16.1 mph N/A   Clear
2:33 PM 78.4 °F 47.5 °F 34% 30.13 in 7.0 mi NNE 9.2 mph - N/A   Clear
2:53 PM 78.3 °F 46.9 °F 33% 30.13 in 7.0 mi NNE 8.1 mph 16.1 mph N/A   Scattered Clouds
3:13 PM 78.8 °F 46.6 °F 32% 30.13 in 10.0 mi NNE 6.9 mph - N/A   Scattered Clouds
3:33 PM 78.1 °F 46.6 °F 33% 30.13 in 10.0 mi North 3.5 mph - N/A   Scattered Clouds
3:53 PM 78.6 °F 48.2 °F 34% 30.13 in 10.0 mi NNE 9.2 mph - N/A   Scattered Clouds
4:13 PM 79.7 °F 47.3 °F 32% 30.13 in 7.0 mi NNE 6.9 mph - N/A   Scattered Clouds
4:33 PM 79.3 °F 46.8 °F 32% 30.13 in 5.0 mi North 6.9 mph - N/A   Haze
4:53 PM 78.4 °F 46.0 °F 32% 30.13 in 4.0 mi North 6.9 mph - N/A   Haze
5:13 PM 79.5 °F 46.4 °F 31% 30.13 in 5.0 mi NNE 6.9 mph - N/A   Haze
5:32 PM 78.3 °F 47.3 °F 34% 30.13 in 5.0 mi NE 6.9 mph - N/A   Haze
5:53 PM 78.8 °F 47.1 °F 33% 30.13 in 5.0 mi NNE 6.9 mph - N/A   Haze
6:13 PM 78.8 °F 47.8 °F 34% 30.13 in 5.0 mi North 5.8 mph - N/A   Haze
6:33 PM 78.8 °F 47.8 °F 34% 30.13 in 5.0 mi North 4.6 mph - N/A   Haze
6:52 PM 78.4 °F 48.0 °F 34% 30.13 in 5.0 mi Calm Calm - N/A   Haze
7:13 PM 78.1 °F 47.8 °F 34% 30.12 in 5.0 mi Calm Calm - N/A   Haze
7:33 PM 77.5 °F 47.7 °F 35% 30.13 in 5.0 mi NNE 3.5 mph - N/A   Haze
7:53 PM 77.0 °F 50.2 °F 39% 30.13 in 5.0 mi Calm Calm - N/A   Haze
8:13 PM 76.5 °F 51.1 °F 41% 30.12 in 5.0 mi Calm Calm - N/A   Haze
8:33 PM 75.0 °F 52.7 °F 46% 30.13 in 5.0 mi Calm Calm - N/A   Haze
8:53 PM 73.2 °F 52.0 °F 47% 30.13 in 5.0 mi Calm Calm - N/A   Haze
9:13 PM 69.8 °F 54.0 °F 57% 30.13 in 5.0 mi Calm Calm - N/A   Haze
9:33 PM 68.2 °F 55.2 °F 63% 30.14 in 7.0 mi Calm Calm - N/A   Clear
9:53 PM 65.3 °F 56.7 °F 74% 30.14 in 7.0 mi Calm Calm - N/A   Clear
10:13 PM 63.7 °F 56.7 °F 78% 30.15 in 7.0 mi Calm Calm - N/A   Clear
10:33 PM 63.9 °F 57.0 °F 78% 30.16 in 10.0 mi Calm Calm - N/A   Clear
10:53 PM 62.2 °F 55.4 °F 78% 30.16 in 10.0 mi Calm Calm - N/A   Clear
11:13 PM 61.9 °F 55.4 °F 79% 30.16 in 10.0 mi Calm Calm - N/A   Clear
11:33 PM 60.8 °F 54.9 °F 81% 30.17 in 10.0 mi Calm Calm - N/A   Clear
11:53 PM 59.9 °F 55.0 °F 84% 30.17 in 10.0 mi Calm Calm - N/A   Clear